| time (UTC) | temp C | wind direction | speed KPH | gust KPH | rain 1hr cm | rain 24hr cm | rain mn cm | humidity % | barometer mb |
| 20260508140842 | 22 | 222 | 6.4 | 19.3 | 0.00 | 0.00 | 0.00 | 46 | 1009.5 |
| 20260508135942 | 22 | 206 | 3.2 | 19.3 | 0.00 | 0.00 | 0.00 | 46 | 1009.7 |
| 20260508135042 | 22 | 227 | 3.2 | 11.3 | 0.00 | 0.00 | 0.00 | 47 | 1009.9 |
| 20260508134142 | 22 | 229 | 4.8 | 14.5 | 0.00 | 0.00 | 0.00 | 47 | 1010.0 |
| 20260508133242 | 22 | 223 | 4.8 | 14.5 | 0.00 | 0.00 | 0.00 | 47 | 1010.0 |
| 20260508132342 | 22 | 261 | 6.4 | 14.5 | 0.00 | 0.00 | 0.00 | 47 | 1010.2 |
| 20260508131503 | 22 | 253 | 4.8 | 19.3 | 0.00 | 0.00 | 0.00 | 46 | 1010.3 |
| 20260508130542 | 22 | 228 | 6.4 | 16.1 | 0.00 | 0.00 | 0.00 | 48 | 1010.2 |
| 20260508125703 | 22 | 214 | 6.4 | 14.5 | 0.00 | 0.00 | 0.00 | 47 | 1010.4 |
| 20260508124742 | 22 | 185 | 9.7 | 16.1 | 0.00 | 0.00 | 0.00 | 48 | 1010.6 |
| 20260508123903 | 22 | 188 | 9.7 | 17.7 | 0.00 | 0.00 | 0.00 | 47 | 1010.5 |
| 20260508123004 | 22 | 236 | 8.0 | 20.9 | 0.00 | 0.00 | 0.00 | 47 | 1010.6 |
| 20260508122042 | 22 | 253 | 6.4 | 17.7 | 0.00 | 0.00 | 0.00 | 48 | 1010.6 |
| 20260508121203 | 21 | 253 | 6.4 | 16.1 | 0.00 | 0.00 | 0.00 | 50 | 1010.8 |
| 20260508120242 | 21 | 189 | 6.4 | 14.5 | 0.00 | 0.00 | 0.00 | 51 | 1011.0 |
| 20260508115342 | 21 | 219 | 8.0 | 14.5 | 0.00 | 0.00 | 0.00 | 52 | 1011.0 |
| 20260508114442 | 21 | 220 | 6.4 | 17.7 | 0.00 | 0.00 | 0.00 | 50 | 1011.0 |
| 20260508113542 | 21 | 188 | 6.4 | 14.5 | 0.00 | 0.00 | 0.00 | 52 | 1011.1 |
| 20260508112642 | 21 | 196 | 4.8 | 16.1 | 0.00 | 0.00 | 0.00 | 51 | 1011.0 |
| 20260508111742 | 21 | 216 | 4.8 | 14.5 | 0.00 | 0.00 | 0.00 | 50 | 1011.2 |
| 20260508110842 | 20 | 237 | 6.4 | 17.7 | 0.00 | 0.00 | 0.00 | 52 | 1011.2 |
| 20260508105942 | 20 | 255 | 6.4 | 20.9 | 0.00 | 0.00 | 0.00 | 51 | 1011.2 |
| 20260508105042 | 20 | 233 | 6.4 | 14.5 | 0.00 | 0.00 | 0.00 | 51 | 1011.2 |
| 20260508104203 | 20 | 221 | 6.4 | 16.1 | 0.00 | 0.00 | 0.00 | 54 | 1011.2 |
| 20260508103242 | 20 | 192 | 4.8 | 14.5 | 0.00 | 0.00 | 0.00 | 53 | 1011.2 |
| 20260508102342 | 20 | 191 | 6.4 | 16.1 | 0.00 | 0.00 | 0.00 | 53 | 1011.3 |
| 20260508101441 | 20 | 226 | 6.4 | 19.3 | 0.00 | 0.00 | 0.00 | 56 | 1011.5 |
| 20260508100542 | 20 | 198 | 4.8 | 17.7 | 0.00 | 0.00 | 0.00 | 54 | 1011.4 |
| 20260508095642 | 19 | 217 | 4.8 | 12.9 | 0.00 | 0.00 | 0.00 | 58 | 1011.5 |
| 20260508094741 | 19 | 235 | 6.4 | 17.7 | 0.00 | 0.00 | 0.00 | 57 | 1011.5 |
| 20260508093842 | 19 | 220 | 6.4 | 14.5 | 0.00 | 0.00 | 0.00 | 59 | 1011.7 |
| 20260508093003 | 18 | 245 | 8.0 | 19.3 | 0.00 | 0.00 | 0.00 | 61 | 1011.8 |
| 20260508092042 | 18 | 238 | 6.4 | 24.1 | 0.00 | 0.00 | 0.00 | 61 | 1011.9 |
| 20260508091142 | 18 | 234 | 8.0 | 17.7 | 0.00 | 0.00 | 0.00 | 62 | 1011.7 |
| 20260508090241 | 18 | 248 | 8.0 | 20.9 | 0.00 | 0.00 | 0.00 | 64 | 1011.6 |
| 20260508085341 | 18 | 260 | 3.2 | 16.1 | 0.00 | 0.00 | 0.00 | 66 | 1011.6 |
| 20260508084441 | 18 | 220 | 3.2 | 8.0 | 0.00 | 0.00 | 0.00 | 69 | 1011.7 |
| 20260508083541 | 17 | 195 | 4.8 | 14.5 | 0.00 | 0.00 | 0.00 | 70 | 1011.7 |
| 20260508082641 | 17 | 227 | 3.2 | 14.5 | 0.00 | 0.00 | 0.00 | 71 | 1011.8 |
| 20260508081741 | 17 | 239 | 3.2 | 14.5 | 0.00 | 0.00 | 0.00 | 71 | 1011.8 |
| 20260508080841 | 17 | 225 | 3.2 | 14.5 | 0.00 | 0.00 | 0.00 | 72 | 1011.6 |
| 20260508075941 | 16 | 199 | 1.6 | 12.9 | 0.00 | 0.00 | 0.00 | 73 | 1011.6 |
| 20260508075041 | 16 | 230 | 1.6 | 11.3 | 0.00 | 0.00 | 0.00 | 73 | 1011.5 |
| 20260508074142 | 16 | 201 | 3.2 | 8.0 | 0.00 | 0.00 | 0.00 | 74 | 1011.4 |
| 20260508073302 | 16 | 199 | 3.2 | 8.0 | 0.00 | 0.00 | 0.00 | 74 | 1011.3 |
| 20260508072341 | 16 | 199 | 4.8 | 14.5 | 0.00 | 0.00 | 0.00 | 75 | 1011.2 |
| 20260508071441 | 16 | 212 | 3.2 | 12.9 | 0.00 | 0.00 | 0.00 | 75 | 1011.2 |
| 20260508070541 | 16 | 216 | 3.2 | 9.7 | 0.00 | 0.00 | 0.00 | 75 | 1011.2 |
| 20260508065641 | 15 | 210 | 1.6 | 9.7 | 0.00 | 0.00 | 0.00 | 76 | 1011.2 |
| 20260508064741 | 15 | 199 | 1.6 | 9.7 | 0.00 | 0.00 | 0.00 | 76 | 1011.1 |
| 20260508063841 | 15 | 220 | 1.6 | 8.0 | 0.00 | 0.00 | 0.00 | 77 | 1011.1 |
| 20260508062941 | 15 | 206 | 1.6 | 8.0 | 0.00 | 0.00 | 0.00 | 77 | 1011.1 |
| 20260508062041 | 15 | 189 | 1.6 | 6.4 | 0.00 | 0.00 | 0.00 | 78 | 1011.0 |
| 20260508061141 | 15 | 187 | 3.2 | 9.7 | 0.00 | 0.00 | 0.00 | 78 | 1010.9 |
| 20260508060241 | 15 | 199 | 3.2 | 9.7 | 0.00 | 0.00 | 0.00 | 78 | 1010.9 |
| 20260508055341 | 15 | 204 | 1.6 | 8.0 | 0.00 | 0.00 | 0.00 | 78 | 1010.8 |
| 20260508054441 | 15 | 222 | 1.6 | 8.0 | 0.00 | 0.00 | 0.00 | 77 | 1010.8 |
| 20260508053541 | 15 | 214 | 3.2 | 9.7 | 0.00 | 0.00 | 0.00 | 77 | 1010.6 |
| 20260508052641 | 15 | 202 | 3.2 | 9.7 | 0.00 | 0.00 | 0.00 | 77 | 1010.5 |
| 20260508051741 | 15 | 205 | 1.6 | 6.4 | 0.00 | 0.00 | 0.00 | 77 | 1010.3 |
| 20260508050841 | 15 | 207 | 3.2 | 9.7 | 0.00 | 0.00 | 0.00 | 76 | 1010.2 |
| 20260508045941 | 15 | 205 | 1.6 | 9.7 | 0.00 | 0.00 | 0.00 | 76 | 1010.2 |
| 20260508045102 | 15 | 207 | 1.6 | 8.0 | 0.00 | 0.00 | 0.00 | 75 | 1010.2 |
| 20260508044141 | 15 | 226 | 3.2 | 9.7 | 0.00 | 0.00 | 0.00 | 75 | 1010.0 |
| 20260508043241 | 15 | 163 | 3.2 | 8.0 | 0.00 | 0.00 | 0.00 | 75 | 1009.8 |
| 20260508042402 | 15 | 182 | 3.2 | 9.7 | 0.00 | 0.00 | 0.00 | 75 | 1009.7 |
| 20260508041441 | 15 | 210 | 3.2 | 11.3 | 0.00 | 0.00 | 0.00 | 75 | 1009.9 |
| 20260508040541 | 15 | 213 | 3.2 | 11.3 | 0.00 | 0.00 | 0.00 | 74 | 1009.9 |
| 20260508035641 | 16 | 217 | 3.2 | 9.7 | 0.00 | 0.00 | 0.00 | 74 | 1010.1 |
| 20260508034741 | 15 | 192 | 3.2 | 8.0 | 0.00 | 0.00 | 0.00 | 74 | 1009.9 |
| 20260508033841 | 15 | 184 | 3.2 | 14.5 | 0.00 | 0.00 | 0.00 | 74 | 1009.9 |
| 20260508032940 | 15 | 208 | 3.2 | 14.5 | 0.00 | 0.00 | 0.00 | 74 | 1010.0 |
| 20260508032101 | 15 | 208 | 1.6 | 9.7 | 0.00 | 0.00 | 0.00 | 74 | 1010.0 |
| 20260508031141 | 15 | 202 | 3.2 | 11.3 | 0.00 | 0.00 | 0.00 | 74 | 1010.1 |
| 20260508030240 | 15 | 197 | 3.2 | 12.9 | 0.00 | 0.00 | 0.00 | 74 | 1010.2 |
| 20260508025340 | 15 | 205 | 3.2 | 12.9 | 0.00 | 0.00 | 0.00 | 74 | 1010.3 |
| 20260508024440 | 15 | 204 | 3.2 | 9.7 | 0.00 | 0.00 | 0.00 | 74 | 1010.5 |
| 20260508023541 | 16 | 207 | 4.8 | 11.3 | 0.00 | 0.00 | 0.00 | 74 | 1010.2 |
| 20260508022641 | 16 | 214 | 3.2 | 12.9 | 0.00 | 0.00 | 0.00 | 74 | 1010.3 |
| 20260508021740 | 16 | 212 | 3.2 | 9.7 | 0.00 | 0.00 | 0.00 | 73 | 1010.4 |
| 20260508020840 | 16 | 210 | 3.2 | 8.0 | 0.00 | 0.00 | 0.00 | 73 | 1010.4 |
| 20260508020001 | 16 | 201 | 3.2 | 9.7 | 0.00 | 0.00 | 0.00 | 73 | 1010.2 |
| 20260508015040 | 16 | 199 | 3.2 | 14.5 | 0.00 | 0.00 | 0.00 | 73 | 1010.3 |
| 20260508014201 | 16 | 202 | 3.2 | 11.3 | 0.00 | 0.00 | 0.00 | 73 | 1010.5 |
| 20260508013302 | 16 | 213 | 3.2 | 11.3 | 0.00 | 0.00 | 0.00 | 73 | 1010.6 |
| 20260508012340 | 16 | 218 | 4.8 | 11.3 | 0.00 | 0.00 | 0.00 | 73 | 1010.6 |
| 20260508011440 | 16 | 197 | 3.2 | 11.3 | 0.00 | 0.00 | 0.00 | 73 | 1010.6 |
| 20260508010540 | 16 | 210 | 3.2 | 8.0 | 0.00 | 0.00 | 0.00 | 73 | 1010.5 |
| 20260508005640 | 16 | 210 | 4.8 | 11.3 | 0.00 | 0.00 | 0.00 | 73 | 1010.7 |
| 20260508004740 | 16 | 220 | 3.2 | 12.9 | 0.00 | 0.00 | 0.00 | 73 | 1010.9 |
| 20260508003840 | 16 | 221 | 3.2 | 12.9 | 0.00 | 0.00 | 0.00 | 73 | 1010.9 |
| 20260508002940 | 16 | 219 | 4.8 | 11.3 | 0.00 | 0.00 | 0.00 | 73 | 1010.8 |
| 20260508002040 | 16 | 208 | 4.8 | 14.5 | 0.00 | 0.00 | 0.00 | 73 | 1010.6 |
| 20260508001140 | 16 | 197 | 4.8 | 12.9 | 0.00 | 0.00 | 0.00 | 73 | 1010.6 |
| 20260508000242 | 16 | 211 | 4.8 | 11.3 | 0.00 | 0.00 | 0.00 | 72 | 1010.8 |
| 20260507235340 | 16 | 219 | 3.2 | 14.5 | 0.00 | 0.00 | 0.00 | 72 | 1011.0 |
| 20260507234440 | 17 | 201 | 3.2 | 8.0 | 0.00 | 0.00 | 0.00 | 71 | 1010.9 |
| 20260507233540 | 16 | 206 | 4.8 | 9.7 | 0.00 | 0.00 | 0.00 | 71 | 1010.8 |
| 20260507232640 | 16 | 202 | 6.4 | 12.9 | 0.00 | 0.00 | 0.00 | 71 | 1010.8 |
| 20260507231740 | 16 | 198 | 4.8 | 12.9 | 0.00 | 0.00 | 0.00 | 71 | 1010.8 |
| 20260507230840 | 17 | 213 | 4.8 | 12.9 | 0.00 | 0.00 | 0.00 | 71 | 1011.1 |
| 20260507225940 | 16 | 213 | 6.4 | 11.3 | 0.00 | 0.00 | 0.00 | 71 | 1011.1 |
| 20260507225040 | 16 | 218 | 4.8 | 14.5 | 0.00 | 0.00 | 0.00 | 71 | 1011.2 |
| 20260507224140 | 16 | 213 | 4.8 | 8.0 | 0.00 | 0.00 | 0.00 | 71 | 1011.4 |
| 20260507223240 | 17 | 235 | 4.8 | 14.5 | 0.00 | 0.00 | 0.00 | 70 | 1011.5 |
| 20260507222340 | 17 | 224 | 4.8 | 8.0 | 0.00 | 0.00 | 0.00 | 69 | 1011.5 |
| 20260507221440 | 17 | 211 | 3.2 | 14.5 | 0.00 | 0.00 | 0.00 | 69 | 1011.6 |
| 20260507220540 | 17 | 222 | 4.8 | 11.3 | 0.00 | 0.00 | 0.00 | 68 | 1011.5 |
| 20260507215640 | 17 | 220 | 4.8 | 9.7 | 0.00 | 0.00 | 0.00 | 67 | 1011.5 |
| 20260507214801 | 17 | 223 | 4.8 | 9.7 | 0.00 | 0.00 | 0.00 | 66 | 1011.5 |
| 20260507213839 | 17 | 220 | 3.2 | 11.3 | 0.00 | 0.00 | 0.00 | 65 | 1011.5 |
| 20260507213001 | 17 | 220 | 3.2 | 11.3 | 0.00 | 0.00 | 0.00 | 64 | 1011.5 |
| 20260507212039 | 17 | 249 | 4.8 | 11.3 | 0.00 | 0.00 | 0.00 | 63 | 1011.4 |
| 20260507211201 | 17 | 246 | 6.4 | 12.9 | 0.00 | 0.00 | 0.00 | 62 | 1011.4 |
| 20260507210239 | 17 | 247 | 6.4 | 12.9 | 0.00 | 0.00 | 0.00 | 61 | 1011.3 |
| 20260507205339 | 17 | 245 | 4.8 | 16.1 | 0.00 | 0.00 | 0.00 | 61 | 1011.2 |
| 20260507204439 | 17 | 257 | 4.8 | 12.9 | 0.00 | 0.00 | 0.00 | 61 | 1011.1 |
| 20260507203540 | 17 | 266 | 6.4 | 14.5 | 0.00 | 0.00 | 0.00 | 61 | 1011.0 |
| 20260507202639 | 17 | 270 | 8.0 | 14.5 | 0.00 | 0.00 | 0.00 | 62 | 1010.9 |
| 20260507201740 | 17 | 264 | 8.0 | 19.3 | 0.00 | 0.00 | 0.00 | 61 | 1010.9 |
| 20260507200839 | 18 | 262 | 6.4 | 17.7 | 0.00 | 0.00 | 0.00 | 62 | 1011.0 |
| 20260507195939 | 18 | 266 | 6.4 | 16.1 | 0.00 | 0.00 | 0.00 | 62 | 1010.8 |
| 20260507195039 | 18 | 241 | 8.0 | 14.5 | 0.00 | 0.00 | 0.00 | 62 | 1010.7 |
| 20260507194139 | 18 | 250 | 8.0 | 17.7 | 0.00 | 0.00 | 0.00 | 62 | 1010.7 |
| 20260507193300 | 18 | 247 | 8.0 | 20.9 | 0.00 | 0.00 | 0.00 | 61 | 1010.6 |
| 20260507192339 | 18 | 258 | 9.7 | 19.3 | 0.00 | 0.00 | 0.00 | 61 | 1010.4 |
| 20260507191439 | 18 | 245 | 9.7 | 22.5 | 0.00 | 0.00 | 0.00 | 61 | 1010.4 |
| 20260507190539 | 19 | 244 | 12.9 | 20.9 | 0.00 | 0.00 | 0.00 | 59 | 1010.2 |
| 20260507185639 | 19 | 247 | 12.9 | 25.7 | 0.00 | 0.00 | 0.00 | 57 | 1010.0 |
| 20260507184739 | 19 | 249 | 14.5 | 27.4 | 0.00 | 0.00 | 0.00 | 57 | 1009.9 |
| 20260507183839 | 20 | 241 | 14.5 | 30.6 | 0.00 | 0.00 | 0.00 | 56 | 1009.8 |
| 20260507182939 | 20 | 237 | 12.9 | 30.6 | 0.00 | 0.00 | 0.00 | 55 | 1009.7 |
| 20260507182039 | 20 | 249 | 12.9 | 25.7 | 0.00 | 0.00 | 0.00 | 56 | 1009.5 |
| 20260507181139 | 20 | 247 | 14.5 | 27.4 | 0.00 | 0.00 | 0.00 | 56 | 1009.5 |
| 20260507180239 | 21 | 255 | 12.9 | 27.4 | 0.00 | 0.00 | 0.00 | 55 | 1009.4 |
| 20260507175339 | 21 | 255 | 12.9 | 29.0 | 0.00 | 0.00 | 0.00 | 53 | 1009.4 |
| 20260507174439 | 21 | 245 | 14.5 | 25.7 | 0.00 | 0.00 | 0.00 | 52 | 1009.3 |
| 20260507173539 | 21 | 245 | 12.9 | 25.7 | 0.00 | 0.00 | 0.00 | 51 | 1009.2 |
| 20260507172639 | 21 | 230 | 11.3 | 24.1 | 0.00 | 0.00 | 0.00 | 51 | 1009.0 |
| 20260507171740 | 21 | 243 | 12.9 | 22.5 | 0.00 | 0.00 | 0.00 | 50 | 1009.0 |
| 20260507170839 | 22 | 244 | 11.3 | 25.7 | 0.00 | 0.00 | 0.00 | 49 | 1009.0 |
| 20260507165939 | 22 | 231 | 11.3 | 22.5 | 0.00 | 0.00 | 0.00 | 48 | 1008.9 |
| 20260507165039 | 22 | 244 | 11.3 | 24.1 | 0.00 | 0.00 | 0.00 | 47 | 1008.8 |
| 20260507164139 | 22 | 233 | 9.7 | 20.9 | 0.00 | 0.00 | 0.00 | 46 | 1008.7 |
| 20260507163300 | 22 | 213 | 9.7 | 19.3 | 0.00 | 0.00 | 0.00 | 46 | 1008.8 |
| 20260507162339 | 22 | 234 | 11.3 | 24.1 | 0.00 | 0.00 | 0.00 | 45 | 1008.7 |
| 20260507161440 | 22 | 235 | 9.7 | 24.1 | 0.00 | 0.00 | 0.00 | 45 | 1008.7 |
| 20260507160600 | 23 | 245 | 9.7 | 24.1 | 0.00 | 0.00 | 0.00 | 44 | 1008.6 |
| 20260507155639 | 23 | 245 | 11.3 | 24.1 | 0.00 | 0.00 | 0.00 | 43 | 1008.6 |
| 20260507154739 | 22 | 269 | 11.3 | 25.7 | 0.00 | 0.00 | 0.00 | 44 | 1008.6 |
| 20260507153839 | 22 | 226 | 11.3 | 22.5 | 0.00 | 0.00 | 0.00 | 44 | 1008.6 |
| 20260507152939 | 22 | 248 | 12.9 | 25.7 | 0.00 | 0.00 | 0.00 | 44 | 1008.6 |
| 20260507152039 | 22 | 256 | 11.3 | 24.1 | 0.00 | 0.00 | 0.00 | 45 | 1008.7 |
| 20260507151139 | 22 | 246 | 9.7 | 25.7 | 0.00 | 0.00 | 0.00 | 46 | 1008.6 |
| 20260507150238 | 22 | 231 | 11.3 | 24.1 | 0.00 | 0.00 | 0.00 | 46 | 1008.8 |
| 20260507145400 | 22 | 240 | 9.7 | 22.5 | 0.00 | 0.00 | 0.00 | 47 | 1008.8 |
| 20260507144438 | 22 | 248 | 12.9 | 22.5 | 0.00 | 0.00 | 0.00 | 47 | 1009.0 |
| 20260507143539 | 22 | 248 | 14.5 | 25.7 | 0.00 | 0.00 | 0.00 | 48 | 1009.0 |
| 20260507142659 | 22 | 240 | 12.9 | 25.7 | 0.00 | 0.00 | 0.00 | 50 | 1009.1 |
| 20260507141738 | 22 | 234 | 11.3 | 29.0 | 0.00 | 0.00 | 0.00 | 52 | 1009.2 |